Terminal Aerodrome Forecast
Issued by NWS Wilmington, OH

Current Version | Previous Version | Text Only | Print | Product List | Glossary Off
Versions: 1 2 3 4 5 6 7 8 9 10 11 12 13 14 15 16 17 18 19 20 21 22 23 24 25 26 27

000
FTUS41 KILN 211400 AAB
TAFILN
TAF AMD
KILN 211458Z 2115/2212 VRB03KT P6SM SCT025
      TEMPO 2115/2117 BKN025
     FM211700 08006KT P6SM SCT035
     FM220100 VRB03KT 4SM BR SKC
     FM220800 00000KT 5SM BR SKC=

USA.gov is the U.S. government's official web portal to all federal, state and local government web resources and services.